sat.trackr.live / text

‹ back to catalog

STARLINK-34959

NORAD 65246 · 2025-179M

PAYLOAD ACTIVE UNKNOWN

§ Identity

Operator
Country
US
Launch date
2025-08-18
Launch site
AFWTR
Launch vehicle
Mass (kg)
RCS (m²)

Purposes: comms

External: N2YO · Heavens-Above · Gunter

§ Orbital elements

Epoch: 2026-05-25T02:53:15.415584Z

Period
95.64 min
Inclination
97.4475°
Eccentricity
0.0002080
Mean motion
15.05657595 rev/d
Perigee alt
548.0 km
Apogee alt
550.9 km
Semi-major
6,927.6 km
B*
2.2117e-4
RAAN
187.8513°
Arg perigee
98.1724°
Mean anomaly
261.9739°
Rev number
4,332

§ Raw data

STARLINK-349591 65246U 25179M   26145.12031731  .00003135  00000+0  22117-3 0  99902 65246  97.4475 187.8513 0002080  98.1724 261.9739 15.05657595 43322

JSON: /api/v1/satellites/65246 · /tle

For live sub-satellite position, see the globe view (requires WebGL).

§ Visibility from observer

Set your observer location to see the next 7 days of passes ≥ 10°. The values pass through the URL so the page stays shareable.

No JS? Fill the form by hand. The geolocation button needs JavaScript.